Flag for Guadeloupe Weather past 2 weeks in Pointe-à-Pitre, Guadeloupe

Now
84 °F

Scattered clouds.


Feels Like: 90 °F
Forecast: 74 / 87 °F
Wind: 14 mph from Southeast

Location: Le Raizet - Guadeloupe

Current Time: Apr 25, 2015 at 4:03:15 PM

Latest Report: Apr 25, 2015 at 3:30 PM


Visibility: N/A

Pressure: 29.92 "Hg

Humidity: 66%

Dew point: 72 °F

Location of Pointe-à-PitreLocation

Historic Weather in Pointe-à-Pitre — Graph

°F

Pointe-à-Pitre temperature yesterday

Maximum temperature yesterday: 84 °F (at 9:00 AM)
Minimum temperature yesterday: 72 °F (at 3:30 AM)
Average temperature yesterday: 77 °F

Past Weeks' High & Low Weather Summary

 TemperatureHumidityPressure
High86 °F (Apr 13, 11:30 AM)94% (Apr 19, 5:30 AM)30.12 "Hg (Apr 19, 5:30 AM)
Low70 °F (Apr 21, 2:00 AM)51% (Apr 12, 10:30 AM)29.92 "Hg (Apr 22, 3:30 PM)
Average79 °F73%30.01 "Hg
* Reported Apr 10 3:00 PM — Apr 25 3:00 PM, Pointe-à-Pitre, Weather by CustomWeather, © 2015

Note: Actual official high and low records may vary slightly from our data, if they occured in-between our weather recording intervals... More about our weather records

Advertising

Pointe-à-Pitre weather history for previous 24 hours

 ConditionsComfort  
Time TempWeatherWind HumidityBarometerVisibility
3:00 PM
Sat, Apr 25
84 °FScattered clouds.15 mph66%29.92 "HgN/A
2:30 PM84 °FScattered clouds.16 mph62%29.95 "HgN/A
2:00 PM86 °FScattered clouds.12 mph62%29.95 "HgN/A
1:30 PM84 °FScattered clouds.13 mph66%29.95 "HgN/A
1:00 PM84 °FScattered clouds.13 mph66%29.98 "HgN/A
12:30 PM84 °FScattered clouds.15 mph66%29.98 "HgN/A
12:00 PM84 °FScattered clouds.14 mph66%29.98 "HgN/A
11:30 AM84 °FScattered clouds.13 mph66%30.01 "HgN/A
11:00 AM82 °FScattered clouds.14 mph70%30.01 "HgN/A
10:30 AM84 °FScattered clouds.13 mph66%30.01 "HgN/A
10:00 AM84 °FScattered clouds.12 mph66%30.01 "HgN/A
9:30 AM82 °FScattered clouds.10 mph70%30.01 "HgN/A
9:00 AM82 °FScattered clouds.13 mph74%30.01 "HgN/A
8:30 AM81 °FScattered clouds.10 mph74%30.01 "HgN/A
8:00 AM81 °FScattered clouds.12 mph74%30.01 "HgN/A
7:30 AM81 °FScattered clouds.8 mph74%30.01 "HgN/A
7:00 AM77 °FPartly sunny.No wind89%30.01 "HgN/A
6:30 AM75 °FScattered clouds.2 mph89%30.01 "HgN/A
6:00 AM73 °FClear.2 mph94%29.98 "HgN/A
5:30 AM73 °FClear.3 mph94%29.98 "HgN/A
5:00 AM73 °FPassing clouds.3 mph94%29.98 "HgN/A
4:30 AM73 °FClear.2 mph94%29.98 "HgN/A
4:00 AM73 °FPassing clouds.2 mph94%29.98 "HgN/A
3:30 AM75 °FMostly cloudy.1 mph89%29.95 "HgN/A
3:00 AM75 °FOvercast.1 mph89%29.95 "HgN/A
2:30 AM75 °FPassing clouds.2 mph89%29.95 "HgN/A
2:00 AM75 °FPartly cloudy.2 mph89%29.95 "HgN/A
1:30 AM75 °FPartly cloudy.2 mph89%29.95 "HgN/A
1:00 AM75 °FPassing clouds.3 mph89%29.98 "HgN/A
12:30 AM77 °FFog.2 mph83%29.98 "Hg2 mi
12:00 AM77 °FOvercast.2 mph89%29.98 "HgN/A
11:30 PM
Fri, Apr 24
75 °FMostly cloudy.3 mph89%29.98 "HgN/A
11:00 PM75 °FPartly cloudy.3 mph89%29.98 "HgN/A
10:30 PM77 °FLight rain. Passing clouds.5 mph83%30.01 "HgN/A
10:00 PM77 °FOvercast.2 mph89%29.98 "HgN/A
9:30 PM77 °FOvercast.3 mph89%29.98 "HgN/A
9:00 PM77 °FPartly cloudy.3 mph89%29.98 "HgN/A
8:30 PM77 °FPartly cloudy.3 mph89%29.98 "HgN/A
8:00 PM77 °FOvercast.No wind89%29.95 "HgN/A
7:30 PM77 °FMostly cloudy.3 mph83%29.95 "HgN/A
7:00 PM77 °FPartly cloudy.3 mph83%29.95 "HgN/A
6:30 PM77 °FPartly cloudy.5 mph83%29.92 "HgN/A
6:00 PM79 °FBroken clouds.6 mph79%29.92 "HgN/A
5:30 PM79 °FBroken clouds.5 mph79%29.92 "HgN/A
4:30 PM77 °FLight rain. Broken clouds.7 mph83%29.92 "Hg4 mi
4:08 PM79 °FLight rain. Broken clouds.8 mph79%29.92 "Hg4 mi
Weather by CustomWeather, © 2015

See weather overviewHow to use our weather pages